CZ-6A DEB, 60213

Orbit data source: Space-Track

CZ-6A DEB, 60213 is space debris in SSO originally from a launch on Thu, 04 Jul 2024 UTC launched from the Taiyaun Space Center, China (TSC). Debris objects in space refer to the collection of defunct objects orbiting the Earth. Examples of debris include non-operational satellites, rocket bodies, and fragments generated from explosions, collisions, or faulty payload assembly.

Loading next visibility...
Identifier
60213, 2024-126C
Orbit
SSO
Country
Flag of CNCN / PRC
Related business
Manufacturer
SAST
Mission
Spacecraft
Bus & Motor
Unknown
Mass
~50 kg wet, ~50 kg dry
Launch date (UTC)
2024-07-04 (2 years ago)
Launch vehicle
Unknown
Launch site
Taiyaun Space Center, China (TSC)
Object type
Payload
Rocket body
Debris
Shape & HBR
Cone, 0.3 m
Radar Cross Section
0.159 m², Large (>1 m²)

Expand to show TLE details & history
Last TLE update: 13 hours ago

TLE from 13 hours ago
0 CZ-6A DEB
1 60213U 24126C   26095.01246379  .00017849  00000-0  11242-2 0  9992
2 60213  97.8236 114.6401 0006063 155.0987 205.0535 15.09212818 95704
Epoch: 2026-04-05T00:17Z
TLE epoch observation values (Epoch: 2026-04-05T00:17:56.871Z)
Latitude
0.00001°
Longitude
-83.17086°
Altitude
545.468 km
Speed
7.587 km/s
True Right ascension
07h 38m 33s
True Declination
0° 00' 00"
Sunlit
Object was in daylight at epoch
Visualization orbit readout
Latitude
Unknown
Longitude
Unknown
Altitude
Unknown
Speed
Unknown
Apparent Right ascension
Unknown
Apparent Declination
Unknown
Sunlit
N/A
Visualization observer readout
Local Sidereal Time
19:30:21
Azimuth
Unknown
Elevation
Unknown
Doppler factor
Unknown
Orbital elements
Apogee altitude
539.794 km
Perigee altitude
531.411 km
Semi-major axis
6,913.74 km
Eccentricity
0.00061
Inclination
97.8236°
RAAN
114.6401°
Arg. of periapsis
155.0987°
True anomaly
205.0241°
Mean anomaly
205.0535°
Eccentric anomaly
205.0388°
Mean motion
3.77549 °/min
Orbital period
95.35 mins
BSTAR
0.0011242
Loading maneuver chart data...
Computing Atmospheric mass density...
Loading historical data...
Loading historical data...
Loading historical data...
Loading historical data...
Loading historical data...
Loading historical data...
Loading historical data...
Other satellites on launch #126 in the year 2024 (2024-07-04 UTC)

Documentation

Showing up to 5 results
|